SCP
0 0 0 0 0 0 0 0 0 0 0 0 0 0 0 0 0 0 0 0 0 0
0 0 0 0 0 0 0 0 0 0 0 0 0 0 0 0 0 0 0 0 0 0
0 0 0 0 0 0 0 0 0 0 0 0 0 0 0 0 0 0 0 0 0 0
0 0 0 0 0 0 0 0 0 0 0 0 0 0 0 0 0 0 0 0 0 0
0 0 0 0 0 0 0 0 0 0 0 0 0 0 0 0 0 0 0 0 0 0
0 0 0 0 0 0 0 0 0 0 0 0 0 0 0 0 0 0 0 0 0 0
0 0 0 0 0 0 0 0 0 0 0 0 0 0 0 0 0 0 0 0 0 0
0 0 0 0 0 0 0 0 0 0 0 0 0 0 0 0 0 0 0 0 0 0
0 0 0 0 0 0 0 0 0 0 0 0 0 0 0 0 0 0 0 0 0 0
0 0 0 0 0 0 0 0 0 0 0 0 0 0 0 0 0 0 0 0 0 0
0 0 0 0 0 0 0 0 0 0 0 0 0 0 0 0 0 0 0 0 0 0
0 0 0 0 0 0 0 0 0 0 0 0 0 0 0 0 0 0 0 0 0 0
0 0 0 0 0 0 0 0 0 0 0 0 0 0 0 0 0 0 0 0 0 0
0 0 0 0 0 0 0 0 0 0 0 0 0 0 0 0 0 0 0 0 0 0
Wind_Speed_500mb
37 38 39 40 40 41 43 43 41 39 38 37 38 39 42 49 54 54 53 52 50 49
19 20 20 22 24 28 32 36 40 40 41 39 38 38 40 46 52 56 56 56 55 54
10 10 12 14 16 20 23 27 30 35 38 39 39 39 39 42 47 51 55 59 59 59
7 9 12 15 17 19 20 23 26 29 33 37 39 38 40 41 44 50 51 55 59 61
10 13 16 19 22 24 26 26 27 28 30 34 38 40 39 44 48 54 56 56 56 59
20 22 24 28 31 32 35 37 36 36 37 35 35 39 37 42 47 51 55 56 59 59
28 31 33 34 36 39 40 40 39 37 39 40 43 37 40 40 46 50 55 57 58 58
28 33 37 39 41 41 42 43 43 39 37 38 41 42 42 44 49 50 55 60 60 60
29 33 36 39 40 41 41 40 41 41 40 41 40 40 40 42 50 55 58 62 63 62
30 32 34 37 37 38 40 42 43 41 42 44 45 44 42 41 46 53 57 61 63 65
25 27 30 32 35 35 38 39 40 41 43 47 43 47 44 45 45 50 54 55 58 61
26 25 26 29 31 34 38 37 38 39 43 47 46 47 50 49 51 54 55 53 54 56
21 22 25 29 32 34 36 36 39 41 40 44 45 47 52 55 57 59 59 59 58 57
17 18 21 25 29 30 28 27 30 33 35 37 39 41 46 55 58 60 60 61 63 64
Wind_Direction_500mb
234 242 249 255 258 260 262 265 264 261 261 265 268 268 265 261 259 258 257 259 260 258
210 223 232 244 255 261 263 265 265 266 265 265 266 267 267 265 262 260 259 259 260 261
204 223 243 250 254 260 265 270 271 271 270 269 269 269 269 267 265 264 262 261 259 259
229 249 261 270 275 276 275 276 278 276 273 274 274 272 271 271 272 270 267 264 263 261
270 273 275 279 282 284 283 278 275 275 274 273 275 275 274 273 273 274 273 270 266 264
284 280 278 277 277 278 279 278 277 278 280 280 275 272 274 273 272 273 274 274 273 270
287 287 286 284 282 280 278 278 277 276 273 273 279 280 278 272 275 274 275 275 274 272
282 282 283 283 283 283 284 285 283 284 286 287 283 278 277 276 275 271 272 274 273 272
284 284 284 283 284 284 284 285 287 289 292 294 291 291 287 282 276 274 269 271 274 274
283 284 284 285 284 285 285 286 289 292 295 293 288 285 284 282 279 277 274 272 272 272
283 284 287 289 289 286 286 286 287 289 293 293 289 276 269 266 269 272 273 274 274 272
306 305 303 301 296 294 292 292 289 288 288 289 290 283 275 273 272 273 274 275 275 276
304 306 311 311 308 306 305 304 300 295 293 286 284 280 277 272 271 271 274 275 275 274
314 316 319 317 312 309 308 306 300 296 292 290 289 285 278 275 275 275 277 276 275 274
Wind_Speed_850mb
37 38 39 40 40 41 43 43 41 39 38 37 38 39 42 49 54 54 53 52 50 49
19 20 20 22 24 28 32 36 40 40 41 39 38 38 40 46 52 56 56 56 55 54
10 10 12 14 16 20 23 27 30 35 38 39 39 39 39 42 47 51 55 59 59 59
7 9 12 15 17 19 20 23 26 29 33 37 39 38 40 41 44 50 51 55 59 61
10 13 16 19 22 24 26 26 27 28 30 34 38 40 39 44 48 54 56 56 56 59
20 22 24 28 31 32 35 37 36 36 37 35 35 39 37 42 47 51 55 56 59 59
28 31 33 34 36 39 40 40 39 37 39 40 43 37 40 40 46 50 55 57 58 58
28 33 37 39 41 41 42 43 43 39 37 38 41 42 42 44 49 50 55 60 60 60
29 33 36 39 40 41 41 40 41 41 40 41 40 40 40 42 50 55 58 62 63 62
30 32 34 37 37 38 40 42 43 41 42 44 45 44 42 41 46 53 57 61 63 65
25 27 30 32 35 35 38 39 40 41 43 47 43 47 44 45 45 50 54 55 58 61
26 25 26 29 31 34 38 37 38 39 43 47 46 47 50 49 51 54 55 53 54 56
21 22 25 29 32 34 36 36 39 41 40 44 45 47 52 55 57 59 59 59 58 57
17 18 21 25 29 30 28 27 30 33 35 37 39 41 46 55 58 60 60 61 63 64
Wind_Direction_850mb
234 242 249 255 258 260 262 265 264 261 261 265 268 268 265 261 259 258 257 259 260 258
210 223 232 244 255 261 263 265 265 266 265 265 266 267 267 265 262 260 259 259 260 261
204 223 243 250 254 260 265 270 271 271 270 269 269 269 269 267 265 264 262 261 259 259
229 249 261 270 275 276 275 276 278 276 273 274 274 272 271 271 272 270 267 264 263 261
270 273 275 279 282 284 283 278 275 275 274 273 275 275 274 273 273 274 273 270 266 264
284 280 278 277 277 278 279 278 277 278 280 280 275 272 274 273 272 273 274 274 273 270
287 287 286 284 282 280 278 278 277 276 273 273 279 280 278 272 275 274 275 275 274 272
282 282 283 283 283 283 284 285 283 284 286 287 283 278 277 276 275 271 272 274 273 272
284 284 284 283 284 284 284 285 287 289 292 294 291 291 287 282 276 274 269 271 274 274
283 284 284 285 284 285 285 286 289 292 295 293 288 285 284 282 279 277 274 272 272 272
283 284 287 289 289 286 286 286 287 289 293 293 289 276 269 266 269 272 273 274 274 272
306 305 303 301 296 294 292 292 289 288 288 289 290 283 275 273 272 273 274 275 275 276
304 306 311 311 308 306 305 304 300 295 293 286 284 280 277 272 271 271 274 275 275 274
314 316 319 317 312 309 308 306 300 296 292 290 289 285 278 275 275 275 277 276 275 274